TimeCDT,TemperatureF,Dew PointF,Humidity,Sea Level PressureIn,VisibilityMPH,Wind Direction,Wind SpeedMPH,Gust SpeedMPH,PrecipitationIn,Events,Conditions,WindDirDegrees,DateUTC
12:54 AM,71.1,68.0,90,30.03,10.0,Calm,Calm,-,N/A,,Clear,0,2013-07-15 05:54:00
1:54 AM,70.0,68.0,93,30.02,10.0,Calm,Calm,-,0.00,Rain,Light Rain,0,2013-07-15 06:54:00
2:54 AM,71.1,68.0,90,30.01,10.0,Calm,Calm,-,0.00,,Clear,0,2013-07-15 07:54:00
3:54 AM,71.1,69.1,93,30.02,10.0,Calm,Calm,-,N/A,,Clear,0,2013-07-15 08:54:00
4:54 AM,72.0,70.0,93,30.04,10.0,East,3.5,-,N/A,,Clear,90,2013-07-15 09:54:00
5:54 AM,71.1,69.1,93,30.06,10.0,Calm,Calm,-,N/A,,Clear,0,2013-07-15 10:54:00
6:54 AM,72.0,70.0,93,30.08,10.0,SE,3.5,-,N/A,,Clear,130,2013-07-15 11:54:00
7:26 AM,73.4,71.6,94,30.11,10.0,ESE,4.6,-,N/A,,Scattered Clouds,110,2013-07-15 12:26:00
7:54 AM,73.9,72.0,93,30.11,9.0,SE,9.2,-,N/A,,Overcast,130,2013-07-15 12:54:00
8:54 AM,75.9,72.0,87,30.14,10.0,SE,5.8,-,N/A,,Overcast,130,2013-07-15 13:54:00
9:31 AM,77.0,71.6,83,30.15,10.0,SE,6.9,-,N/A,,Overcast,130,2013-07-15 14:31:00
9:54 AM,79.0,72.0,79,30.14,10.0,Calm,Calm,-,N/A,,Overcast,0,2013-07-15 14:54:00
10:30 AM,82.4,73.4,74,30.16,10.0,Variable,4.6,-,N/A,,Scattered Clouds,0,2013-07-15 15:30:00
10:42 AM,82.4,73.4,74,30.16,10.0,East,4.6,-,N/A,,Mostly Cloudy,90,2013-07-15 15:42:00
10:54 AM,82.9,73.0,72,30.14,10.0,ESE,6.9,-,N/A,,Mostly Cloudy,110,2013-07-15 15:54:00
11:38 AM,84.2,73.4,70,30.15,10.0,ESE,10.4,-,N/A,,Mostly Cloudy,120,2013-07-15 16:38:00
11:54 AM,84.0,73.0,69,30.14,10.0,ESE,5.8,-,N/A,,Mostly Cloudy,120,2013-07-15 16:54:00
12:54 PM,86.0,72.0,63,30.12,10.0,SE,10.4,-,N/A,,Mostly Cloudy,130,2013-07-15 17:54:00
1:54 PM,87.1,71.1,59,30.10,10.0,Variable,6.9,-,N/A,,Mostly Cloudy,0,2013-07-15 18:54:00
2:54 PM,87.1,70.0,57,30.09,10.0,East,6.9,-,N/A,,Mostly Cloudy,100,2013-07-15 19:54:00
3:54 PM,88.0,71.1,57,30.07,10.0,ESE,9.2,-,N/A,,Mostly Cloudy,110,2013-07-15 20:54:00
4:54 PM,88.0,69.1,53,30.07,10.0,East,8.1,-,N/A,,Partly Cloudy,90,2013-07-15 21:54:00
5:54 PM,89.1,70.0,53,30.07,10.0,East,9.2,-,N/A,,Partly Cloudy,90,2013-07-15 22:54:00
6:54 PM,84.9,71.1,63,30.08,10.0,ESE,10.4,-,N/A,,Partly Cloudy,110,2013-07-15 23:54:00
7:54 PM,82.0,71.1,69,30.10,10.0,East,8.1,-,N/A,,Partly Cloudy,100,2013-07-16 00:54:00
8:54 PM,80.1,71.1,74,30.13,10.0,East,3.5,-,N/A,,Clear,90,2013-07-16 01:54:00
9:54 PM,79.0,72.0,79,30.14,10.0,East,5.8,-,N/A,,Clear,100,2013-07-16 02:54:00
10:54 PM,78.1,73.0,84,30.14,10.0,Calm,Calm,-,N/A,,Clear,0,2013-07-16 03:54:00
11:54 PM,75.0,72.0,90,30.13,10.0,Calm,Calm,-,N/A,,Clear,0,2013-07-16 04:54:00